Le nostre stazioni meteo in Italia

Pubblicità
Il mio iltempo24.it
Catania/Sigonella, Italia (16459): Temperatura & dewpoint: 11.02.2019 13:00:00 - 17.02.2019 13:00:00 (CET)Catania/Sigonella, Italia (16459): velocità del vento: 11.02.2019 13:00:00 - 17.02.2019 13:00:00 (CET)Catania/Sigonella, Italia (16459): direzione del vento: 11.02.2019 13:00:00 - 17.02.2019 13:00:00 (CET)Catania/Sigonella, Italia (16459): reduced air pressure: 11.02.2019 13:00:00 - 17.02.2019 13:00:00 (CET)Catania/Sigonella, Italia (16459): visibility: 11.02.2019 13:00:00 - 17.02.2019 13:00:00 (CET)
Data & Tempo tt [°C] td [°C] ff [km/h] ff [kn] dd ppp [hPa] vv [km]
17.02.2019 13:00:00 15,2 1,7 15 8 OSO 1029,0 15
17.02.2019 12:00:00 15,0 3,0 9 5 SO - 10
17.02.2019 11:00:00 13,0 5,0 11 6 O - 10
17.02.2019 10:00:00 10,0 5,6 11 6 O 1031,0 15
17.02.2019 09:00:00 6,0 4,0 9 5 O - 10
17.02.2019 08:00:00 4,0 4,0 8 4 O - 10
17.02.2019 07:00:00 1,2 1,2 8 4 O 1030,1 10
17.02.2019 06:00:00 2,0 2,0 9 5 O - 10
17.02.2019 05:00:00 2,0 2,0 13 7 O - 10
17.02.2019 04:00:00 2,2 2,2 8 4 OSO 1029,9 10
17.02.2019 03:00:00 4,0 4,0 9 5 OSO - 10
17.02.2019 02:00:00 4,0 4,0 8 4 O - 10
17.02.2019 01:00:00 2,2 2,2 11 6 O 1031,1 10
17.02.2019 00:00:00 3,0 3,0 4 2 O - 10
16.02.2019 23:00:00 4,0 4,0 4 2 ONO - 10
16.02.2019 22:00:00 5,4 4,7 5 3 O 1030,5 10
16.02.2019 21:00:00 7,0 5,0 9 5 ONO - 10
16.02.2019 20:00:00 9,0 6,0 5 3 O - 10
16.02.2019 19:00:00 9,2 5,0 11 6 NE 1028,9 12
16.02.2019 18:00:00 9,0 5,0 11 6 S - 10
16.02.2019 17:00:00 10,0 5,0 11 6 SE - 10
16.02.2019 16:00:00 10,6 3,4 15 8 E 1028,2 12
16.02.2019 15:00:00 11,0 2,0 18 10 E - 10
16.02.2019 14:00:00 12,0 1,0 22 12 E - 10
16.02.2019 13:00:00 12,2 0,9 24 13 E 1028,1 14
16.02.2019 12:00:00 12,0 -1,0 28 15 ENE - 10
16.02.2019 11:00:00 12,0 2,0 16 9 NE - 10
16.02.2019 10:00:00 10,8 5,1 8 4 O 1028,2 15
16.02.2019 09:00:00 8,0 5,0 8 4 O - 10
16.02.2019 08:00:00 5,0 5,0 9 5 NNO - 10
16.02.2019 07:00:00 2,8 2,8 4 2 SSO 1026,6 6
16.02.2019 06:00:00 4,0 3,0 9 5 O - 10
16.02.2019 05:00:00 5,0 4,0 8 4 N - 10
16.02.2019 04:00:00 5,4 3,3 8 4 E 1025,7 13
16.02.2019 03:00:00 4,0 3,0 9 5 SE - 10
16.02.2019 02:00:00 5,0 5,0 5 3 NE - 10
16.02.2019 01:00:00 5,6 5,6 8 4 NNO 1025,0 13
16.02.2019 00:00:00 5,0 5,0 5 3 O - 10
15.02.2019 23:00:00 6,0 6,0 8 4 SSO - 10
15.02.2019 22:00:00 6,6 6,6 2 1 N 1025,1 10
15.02.2019 21:00:00 7,0 7,0 26 14 ENE - 6
15.02.2019 20:00:00 7,0 6,0 22 12 E - 10
15.02.2019 19:00:00 8,8 8,1 22 12 E 1023,9 10
15.02.2019 18:00:00 9,0 8,0 22 12 E - 10
15.02.2019 17:00:00 13,0 6,0 22 12 E - 10
15.02.2019 16:00:00 13,8 1,1 24 13 E 1022,7 10
15.02.2019 15:00:00 14,0 3,0 26 14 E - 10
15.02.2019 14:00:00 15,0 2,0 15 8 ESE - 10
15.02.2019 13:00:00 14,8 3,9 9 5 SSE 1024,4 10
15.02.2019 12:00:00 13,0 4,0 4 2 SSE - 10
15.02.2019 11:00:00 12,0 5,0 11 6 E - 10
15.02.2019 10:00:00 9,8 6,2 4 2 NNO 1026,6 10
15.02.2019 09:00:00 8,0 5,0 13 7 S - 10
15.02.2019 08:00:00 4,0 4,0 5 3 N - 10
15.02.2019 07:00:00 2,8 2,8 8 4 ESE 1026,5 10
15.02.2019 06:00:00 3,0 2,0 4 2 SSE - 10
15.02.2019 05:00:00 4,0 2,0 4 2 O - 10
15.02.2019 04:00:00 6,0 4,0 5 3 E 1026,7 10
15.02.2019 03:00:00 5,0 3,0 18 10 E - 10
15.02.2019 02:00:00 3,0 2,0 8 4 O - 10
15.02.2019 01:00:00 1,2 1,2 8 4 O 1027,7 10
15.02.2019 00:00:00 2,0 1,0 8 4 O - 10
14.02.2019 23:00:00 3,0 2,0 5 3 SSO - 10
14.02.2019 22:00:00 5,6 -0,2 11 6 O 1027,8 10
14.02.2019 21:00:00 5,0 2,0 13 7 ONO - 10
14.02.2019 20:00:00 6,0 4,0 11 6 O - 10
14.02.2019 19:00:00 7,4 3,5 4 2 NNE 1028,3 16
14.02.2019 18:00:00 9,0 2,0 5 3 ESE - 10
14.02.2019 17:00:00 10,0 1,0 13 7 ESE - 10
14.02.2019 16:00:00 12,0 -0,8 24 13 E 1028,0 20
14.02.2019 15:00:00 13,0 -1,0 21 11 E - 10
14.02.2019 14:00:00 14,0 -1,0 13 7 E - 10
14.02.2019 13:00:00 14,8 -0,5 5 3 SSE 1029,0 20
14.02.2019 12:00:00 13,0 0,0 8 4 SO - 10
14.02.2019 11:00:00 12,0 1,0 11 6 OSO - 10
14.02.2019 10:00:00 10,6 1,2 16 9 OSO 1029,3 20
14.02.2019 09:00:00 8,0 1,0 13 7 O - 10
14.02.2019 08:00:00 1,0 -1,0 8 4 ONO - 10
14.02.2019 07:00:00 1,0 -0,8 11 6 O 1029,4 12
14.02.2019 06:00:00 2,0 -1,0 5 3 ONO - 10
14.02.2019 05:00:00 3,0 -1,0 16 9 SSO - 10
14.02.2019 04:00:00 3,4 -0,2 15 8 SSO 1027,7 10
14.02.2019 03:00:00 3,0 1,0 13 7 S - 10
14.02.2019 02:00:00 5,0 -2,0 13 7 OSO - 10
14.02.2019 01:00:00 6,0 -2,4 8 4 NO 1028,5 10
14.02.2019 00:00:00 7,0 -4,0 16 9 NNE - 10
13.02.2019 23:00:00 7,0 -5,0 16 9 E - 10
13.02.2019 22:00:00 8,0 -4,1 18 10 E 1027,2 10
13.02.2019 21:00:00 8,0 -6,0 4 2 N - 10
13.02.2019 20:00:00 8,0 -6,0 18 10 N - 10
13.02.2019 19:00:00 8,0 -6,5 28 15 NNO 1026,6 10
13.02.2019 18:00:00 8,0 -6,0 34 18 OSO - 10
13.02.2019 17:00:00 8,0 -6,0 16 9 ESE - 10
13.02.2019 16:00:00 10,4 -5,6 31 17 ONO 1023,4 10
13.02.2019 15:00:00 11,0 -3,0 24 13 O - 10
13.02.2019 14:00:00 11,0 -4,0 29 16 E - 10
13.02.2019 13:00:00 11,0 -3,1 22 12 O 1024,6 15
13.02.2019 12:00:00 11,0 -3,0 28 15 ENE - 10
13.02.2019 11:00:00 11,0 -3,0 34 18 O - 10
13.02.2019 10:00:00 8,6 -3,6 18 10 NE 1025,8 10
13.02.2019 09:00:00 9,0 -3,0 9 5 S - 10
13.02.2019 08:00:00 7,0 -4,0 42 23 ONO - 10
13.02.2019 07:00:00 6,0 -5,0 5 3 ESE 1025,0 12
13.02.2019 06:00:00 7,0 -6,0 11 6 NNO - 10
13.02.2019 05:00:00 7,0 -4,0 11 6 NE - 10
13.02.2019 04:00:00 7,4 -4,0 34 18 OSO 1022,7 10
13.02.2019 03:00:00 6,0 -5,0 15 8 O - 10
13.02.2019 02:00:00 6,0 -5,0 15 8 N - 10
13.02.2019 01:00:00 7,4 -5,7 22 12 N 1022,4 10
13.02.2019 00:00:00 8,0 -5,0 26 14 O - 10
12.02.2019 23:00:00 8,0 -1,0 26 14 O - 10
12.02.2019 22:00:00 8,0 -1,8 18 10 ONO 1022,6 10
12.02.2019 21:00:00 8,0 -2,0 35 19 O - 10
12.02.2019 20:00:00 9,0 -1,0 28 15 NO - 10
12.02.2019 19:00:00 9,0 -1,4 26 14 O 1021,3 10
12.02.2019 18:00:00 9,0 1,0 15 8 N - 10
12.02.2019 17:00:00 9,0 -1,0 18 10 SO - 10
12.02.2019 16:00:00 10,2 1,6 16 9 E 1019,8 10
12.02.2019 15:00:00 9,0 1,0 18 10 ENE - 10
12.02.2019 14:00:00 11,0 0,0 22 12 NNO - 10
12.02.2019 13:00:00 11,2 2,5 9 5 ESE 1018,8 10
12.02.2019 12:00:00 11,0 4,0 8 4 NO - 10
12.02.2019 11:00:00 10,0 3,0 15 8 NO - 10
12.02.2019 10:00:00 8,8 4,6 16 9 OSO 1018,3 10
12.02.2019 09:00:00 7,0 3,0 16 9 ONO - 10
12.02.2019 08:00:00 7,0 4,0 26 14 O - 10
12.02.2019 07:00:00 5,2 5,2 22 12 O 1016,9 10
12.02.2019 06:00:00 5,0 5,0 26 14 OSO - 10
12.02.2019 05:00:00 6,0 6,0 9 5 OSO - 10
12.02.2019 04:00:00 5,2 3,4 16 9 ONO 1016,8 10
12.02.2019 03:00:00 5,0 5,0 13 7 ONO - 10
12.02.2019 02:00:00 5,0 2,0 5 3 NNO - 10
12.02.2019 01:00:00 6,2 3,4 11 6 O 1017,0 10
12.02.2019 00:00:00 5,0 4,0 4 2 E - 10
11.02.2019 23:00:00 5,0 4,0 5 3 S - 10
11.02.2019 22:00:00 8,2 5,1 16 9 O 1016,8 10
11.02.2019 21:00:00 8,0 5,0 18 10 OSO - 10
11.02.2019 20:00:00 9,0 3,0 15 8 O - 10
11.02.2019 19:00:00 10,8 2,9 26 14 NO 1015,1 12
11.02.2019 18:00:00 13,0 2,0 31 17 O - 10
11.02.2019 17:00:00 15,0 4,0 26 14 O - 10
11.02.2019 16:00:00 17,0 4,0 35 19 O 1013,5 12
11.02.2019 15:00:00 18,0 5,0 46 25 O - 10
11.02.2019 14:00:00 18,0 10,0 39 21 OSO - 10
11.02.2019 13:00:00 17,0 9,2 37 20 OSO 1014,8 12

tt = Temperatura
td = dewpoint
ff = velocità del vento
dd = direzione del vento
ppp = reduced air pressure
vv = visibility

Stazioni seguenti

WeatherPro
AMSI
MeteoEarth